User: anonymous   Login
Location: Bonn
(50.7330°N, 7.1000°E)
Time: 00:39:23
(UTC+01:00)
Language:

Iridium 84 - Orbit

View from above orbital plane
View from above orbital plane
View from above satellite
View from above satellite

Ground track
Ground track

The orbit data is extracted from the following two-line orbital elements,

1 25530U 98066D   14303.78129198  .00000467  00000-0  15981-3 0  8487
2 25530 086.3995 031.4703 0002284 110.0038 250.1404 14.34223282839348
Epoch (UTC): 30 October 2014 18:45:03
Eccentricity: 0.0002284
inclination: 86.3995°
perigee height: 776 km
apogee height: 779 km
right ascension of ascending node: 31.4703°
argument of perigee: 110.0038°
revolutions per day: 14.34223282
mean anomaly at epoch: 250.1404°
orbit number at epoch: 83934

The dashed part of the orbit path shows where the satellite is in the earth's shadow,  

DLR